RH
20 22 18 16 19 28 40 65 94 102 101 101 104 90 84 100 98 97 100 101 101 99 101 91 81 73 69 67 58 46 31 26 24 20 20 19 19 19 21 24 27 32 33 31 29 28 30 29 27 24 27 30 30 48 70 85 91 93 96 99 102 102 90 75 83 97 100 94 76 56 35 21 13 10 11 9 8 9 15 22 33 36 31 45 55 60 66 53 41 39 39 43 45 49 52 56 61
20 22 20 17 24 54 74 87 104 99 91 83 80 74 78 100 99 99 102 99 100 101 94 79 73 65 55 48 39 34 29 24 20 20 20 19 19 19 21 21 24 29 31 30 31 33 33 32 27 25 30 39 57 81 94 99 100 98 101 103 96 89 76 66 85 102 92 77 61 44 24 12 9 10 10 7 11 16 22 28 34 37 32 39 57 68 75 67 49 43 43 43 43 45 44 47 58
18 21 20 17 24 59 78 76 80 69 53 38 44 61 76 97 101 100 99 98 101 100 84 65 65 64 58 48 36 30 25 22 20 21 20 20 20 20 22 24 30 33 34 34 36 39 36 35 34 35 45 66 87 99 100 95 91 89 91 89 80 71 63 59 71 80 72 61 49 31 15 9 9 8 8 13 23 26 27 31 34 38 33 34 51 64 78 80 63 50 46 46 45 45 47 46 47
16 19 17 17 17 25 32 33 41 37 26 29 54 75 81 94 99 99 100 101 101 92 72 60 61 59 56 45 33 27 23 23 22 21 20 20 19 23 29 32 38 38 38 40 41 41 40 47 57 65 79 96 101 99 94 86 76 69 67 65 59 51 50 55 59 63 60 49 32 16 9 8 7 8 17 28 33 32 29 32 38 37 34 36 44 56 77 90 82 67 56 52 51 51 52 53 52
14 17 15 17 18 17 15 17 34 40 36 55 85 85 81 95 98 100 100 96 90 75 67 68 63 56 52 40 29 26 24 22 20 20 19 19 24 34 42 44 43 37 35 37 42 45 49 67 86 92 98 99 91 87 82 72 61 53 50 47 44 52 67 73 68 59 46 28 14 8 7 8 11 19 28 34 37 36 31 35 44 41 36 36 44 66 88 100 98 88 78 65 59 59 53 50 50
13 14 14 14 17 18 16 18 31 40 46 70 86 70 72 96 98 96 94 91 84 67 66 71 61 55 49 36 28 24 22 20 19 19 17 22 37 46 47 47 41 33 30 33 45 53 57 77 96 97 94 93 88 84 72 57 51 48 47 50 62 76 79 66 49 35 22 12 8 8 9 13 17 20 22 28 36 38 38 43 50 47 41 38 55 88 101 100 93 89 92 84 68 61 56 49 47
11 11 11 12 13 12 15 22 31 39 43 58 72 61 61 80 84 90 94 93 87 71 69 67 55 51 43 30 25 22 20 19 20 20 20 30 45 48 44 43 38 32 30 36 51 59 58 67 78 77 76 81 85 87 78 63 54 55 66 78 80 68 50 34 24 16 11 8 7 10 13 15 12 11 15 25 39 44 48 52 55 49 42 46 67 97 105 99 85 70 80 96 84 66 61 55 52
8 9 9 13 18 19 25 32 38 52 51 45 59 64 59 68 76 90 100 100 93 79 70 59 47 42 35 29 23 20 20 19 19 25 32 40 47 48 46 44 40 33 30 39 55 64 63 65 68 62 58 60 69 83 90 89 83 82 86 77 56 38 28 20 15 10 7 7 11 14 12 9 7 12 20 32 46 52 55 56 57 50 44 49 66 88 98 101 92 69 67 85 90 86 81 72 66
6 7 7 15 34 41 38 37 39 55 60 46 54 73 73 71 78 87 86 88 88 76 64 52 43 35 28 24 18 18 19 17 20 30 39 42 49 54 52 47 41 34 31 41 61 77 80 79 79 74 70 73 83 96 99 96 89 79 66 47 31 25 19 12 10 7 7 12 14 13 9 7 9 17 29 42 54 57 57 57 55 48 45 46 54 73 83 88 90 78 69 67 74 88 89 82 82
6 8 6 10 29 37 29 27 29 42 53 41 47 74 78 68 70 67 53 53 57 55 49 41 33 23 19 16 13 15 14 16 24 32 37 45 54 54 49 46 42 35 37 49 72 95 100 95 95 95 94 95 94 90 81 70 60 50 39 29 22 17 12 8 7 7 12 15 14 13 10 9 8 16 32 46 55 58 58 57 53 48 45 46 50 64 70 69 69 65 62 61 64 75 79 79 85
6 5 7 12 17 24 31 40 47 59 72 62 59 69 63 56 55 48 37 35 35 34 30 23 19 15 14 12 10 11 14 18 23 29 39 50 54 47 41 43 41 36 39 51 69 88 94 92 93 93 90 83 71 59 52 47 41 34 26 18 14 11 8 7 8 13 17 13 16 18 13 10 9 12 23 34 44 49 51 49 45 41 39 39 38 41 41 36 34 30 29 39 51 65 76 82 85
7 7 10 12 21 47 67 82 89 92 96 82 66 56 44 39 40 38 33 27 23 20 15 12 14 15 13 9 9 12 17 19 20 32 48 55 49 39 35 38 41 38 36 38 45 57 63 65 66 66 62 55 46 41 40 36 29 21 14 12 10 8 6 9 15 18 13 14 27 24 14 12 9 9 13 19 25 28 30 29 25 23 22 21 20 17 17 14 13 13 12 15 24 36 47 57 64
7 11 17 21 45 84 97 102 100 77 64 56 49 47 36 28 31 32 27 22 19 15 12 13 16 16 11 8 11 13 16 18 24 40 49 47 40 33 31 35 42 40 35 31 30 34 35 37 38 40 39 35 33 33 29 21 16 11 9 8 6 6 10 18 19 15 13 26 40 25 14 16 11 12 14 12 14 15 15 15 17 19 19 16 14 13 12 13 12 13 13 13 13 16 19 25 33
11 16 34 56 80 100 99 100 92 57 31 31 45 51 35 32 42 33 22 21 16 11 11 13 13 12 12 15 18 19 19 22 30 38 38 34 32 32 35 41 45 40 33 31 30 28 25 24 26 28 27 25 23 19 14 11 9 6 5 5 7 13 19 20 14 13 16 32 43 24 14 18 17 18 17 17 17 17 16 18 21 24 23 16 13 13 12 13 15 17 17 19 18 16 15 14 19
13 21 49 81 93 92 92 98 93 72 49 40 50 53 34 35 49 32 15 16 10 9 13 14 13 12 18 25 24 22 21 24 30 35 33 31 33 39 45 48 47 39 30 27 26 26 23 20 21 21 19 16 12 9 8 5 4 3 4 8 14 18 19 15 12 17 21 31 42 30 17 16 19 21 20 25 23 21 21 23 25 24 22 16 13 14 14 17 19 22 20 21 23 22 20 12 16
23 34 61 87 92 87 88 95 93 85 80 73 71 70 56 43 40 29 17 18 13 9 14 17 16 16 18 19 19 20 21 25 31 36 38 40 45 50 50 46 39 31 26 23 21 20 19 18 18 16 12 9 7 6 4 2 3 5 9 14 17 18 17 19 22 26 29 33 42 39 24 14 17 20 22 28 27 25 27 27 27 23 21 16 14 16 18 22 20 20 19 18 20 22 24 15 24
49 60 80 96 99 97 93 92 86 79 80 79 74 75 74 58 39 28 21 19 16 11 16 19 16 16 17 16 20 25 27 32 39 44 48 51 51 46 39 33 28 25 21 19 17 17 18 17 13 10 8 5 5 4 3 5 6 9 15 16 16 20 23 26 28 28 30 33 38 38 24 14 17 19 21 26 29 31 31 31 30 24 21 18 18 21 22 23 21 19 16 14 14 17 23 19 25
79 86 92 94 94 89 79 78 75 68 67 67 68 67 70 62 38 24 20 17 14 13 17 17 14 16 21 25 29 33 37 44 48 52 52 48 41 35 31 28 26 24 19 18 18 17 16 12 8 7 6 5 6 6 7 8 9 14 18 17 20 26 27 25 24 23 24 25 27 27 20 17 19 20 22 26 32 34 32 30 27 23 22 22 21 23 23 23 23 21 17 13 12 13 20 23 21
89 85 83 83 90 84 73 81 87 84 80 75 71 61 54 47 29 19 17 15 12 12 13 11 11 15 25 34 37 40 43 44 46 48 45 38 34 34 30 26 23 21 19 18 15 13 10 8 7 6 6 8 10 10 10 10 14 19 17 18 26 28 26 23 19 18 19 21 22 21 20 20 21 24 28 31 35 32 28 26 24 25 25 27 27 26 28 29 29 27 24 19 16 15 19 27 26
84 79 76 78 91 95 89 96 101 97 91 82 69 53 39 31 22 16 15 13 12 11 10 10 11 16 28 39 41 40 38 37 41 42 39 35 33 29 22 18 16 14 13 11 9 9 8 7 7 7 10 11 11 11 11 13 19 21 16 21 28 27 26 22 18 18 21 23 23 22 22 22 24 27 28 29 30 26 26 27 29 31 31 34 37 36 36 37 39 35 30 25 22 20 21 29 33
83 90 90 84 89 93 93 100 100 94 86 80 74 54 30 22 19 15 14 14 15 12 11 13 18 26 36 39 36 34 35 38 40 39 38 33 24 17 13 11 10 9 9 9 9 8 7 7 8 9 11 10 10 10 11 19 24 18 15 22 28 28 25 21 20 22 25 26 26 27 26 27 27 27 28 26 25 27 29 33 37 38 38 41 48 52 48 43 44 43 34 27 26 25 24 27 35
57 81 95 97 95 90 92 96 92 86 82 81 84 62 26 16 16 14 15 15 19 18 17 26 34 39 38 33 29 29 33 35 34 37 35 23 12 8 8 7 7 7 8 8 8 7 7 8 9 10 12 13 12 10 17 26 23 14 17 26 30 26 23 23 25 28 29 30 30 28 29 29 28 28 29 27 26 30 32 35 39 40 46 54 63 73 72 54 40 45 43 29 27 29 27 26 29
19 39 63 80 85 81 85 88 83 82 83 83 88 69 28 13 14 15 18 18 26 32 32 41 43 37 31 27 26 26 30 30 31 35 25 10 6 6 5 4 4 4 4 5 6 7 9 10 10 11 13 14 11 15 28 30 19 17 25 30 27 22 23 27 30 36 38 36 35 33 33 30 28 29 30 29 28 30 32 36 41 44 56 70 78 86 88 66 37 42 49 33 27 30 29 28 28
8 11 21 38 55 70 85 91 88 92 95 93 93 71 31 16 16 19 24 24 34 43 40 39 34 27 27 26 25 27 31 29 30 30 16 8 7 5 4 4 4 3 5 7 8 10 13 11 10 10 11 13 16 27 35 29 22 25 29 26 23 22 27 31 33 42 47 46 45 42 41 38 35 32 32 34 31 33 37 40 46 51 66 79 83 87 85 68 45 40 43 33 28 31 30 28 29
10 9 8 15 30 54 86 102 100 101 99 100 94 64 34 25 25 26 32 33 37 39 32 28 26 25 29 28 26 30 32 25 23 24 19 18 15 12 11 9 7 6 7 9 9 13 16 13 12 15 16 18 23 28 27 23 23 25 24 22 23 27 30 31 32 37 43 45 45 43 42 41 42 42 45 48 43 43 45 48 51 55 73 83 78 77 66 60 64 51 37 31 29 32 31 30 32
12 11 8 9 12 20 49 78 93 102 100 102 86 49 35 36 33 35 37 34 32 30 28 27 29 30 32 32 32 34 33 26 25 27 26 26 23 22 19 14 10 8 9 9 10 15 18 18 20 21 18 16 16 17 16 18 21 21 22 24 27 29 29 28 26 26 29 32 35 37 35 33 36 41 46 49 47 45 43 43 43 46 61 66 71 76 56 57 74 55 33 30 29 31 32 32 34
14 14 10 7 8 5 14 32 57 83 93 101 77 38 39 45 36 35 34 31 30 33 34 33 36 39 40 40 39 38 34 30 27 26 25 24 24 24 21 16 12 10 9 9 11 16 20 21 19 16 12 11 11 13 16 18 20 23 25 28 28 27 24 23 22 21 22 26 32 35 30 27 29 32 35 37 38 38 37 37 37 41 44 48 71 77 54 59 65 43 30 27 25 29 32 35 36
14 14 13 6 4 4 7 10 20 40 57 72 62 40 45 48 39 36 36 39 40 43 44 42 45 49 50 46 39 36 33 27 21 19 18 19 21 22 18 14 11 9 10 10 12 17 19 15 11 10 11 12 15 17 19 21 23 26 26 25 23 21 20 19 20 20 20 22 30 35 33 30 29 29 30 29 29 30 31 34 38 41 40 45 63 65 64 78 62 34 28 24 23 30 32 36 39
15 14 15 8 2 3 6 7 9 24 43 58 59 53 50 47 43 39 40 45 45 48 51 52 56 58 57 49 36 31 27 21 15 12 12 14 17 17 14 11 10 9 10 10 14 19 15 9 10 13 15 18 21 21 23 24 25 26 24 21 19 18 18 19 19 19 19 19 23 31 35 36 34 30 28 25 24 25 24 26 30 32 31 35 41 47 68 77 48 28 26 22 24 31 33 36 40
17 15 16 10 3 5 6 6 7 19 43 65 71 65 53 46 44 41 43 47 45 47 52 59 65 63 59 51 39 29 22 15 10 7 9 12 13 12 10 9 9 9 10 11 19 22 14 11 16 18 20 22 23 24 25 25 28 29 23 18 18 18 18 18 18 18 19 19 20 24 28 31 33 33 33 31 28 27 26 24 25 26 26 28 28 31 43 44 28 23 26 24 27 32 33 35 40
20 16 16 13 6 7 8 7 6 8 24 54 75 75 64 53 46 43 45 46 46 47 51 59 65 64 58 50 38 27 17 10 7 8 9 9 9 8 8 9 10 10 11 14 19 19 14 17 20 20 22 22 22 24 25 27 32 30 22 18 19 18 18 18 18 18 18 19 20 20 23 26 29 31 33 34 30 27 28 27 26 27 29 28 27 28 29 28 25 22 27 29 29 33 32 33 40
23 19 17 16 9 9 11 8 8 6 8 25 50 66 66 53 42 40 42 44 45 46 48 54 60 60 56 45 31 18 10 6 6 7 6 6 8 8 9 10 10 12 14 15 16 17 18 20 21 20 20 19 21 25 27 30 30 24 19 18 19 18 18 18 17 18 18 18 18 20 24 27 28 31 31 29 28 27 26 27 27 28 30 28 26 27 25 25 24 20 29 34 31 32 32 31 37
24 21 19 18 12 10 13 12 9 7 5 7 17 31 38 38 38 35 36 39 40 43 47 51 55 54 45 31 18 9 6 6 5 4 5 7 8 8 9 11 13 17 18 16 17 19 20 19 19 19 20 22 25 28 29 27 22 19 18 18 18 18 18 17 17 17 17 18 19 20 24 26 29 33 31 26 26 27 26 27 29 28 29 27 22 22 23 24 27 27 31 36 35 33 31 34 36
24 23 21 20 15 11 12 15 14 11 8 7 7 11 16 34 48 40 31 33 34 39 46 47 45 37 26 14 7 6 6 7 5 5 8 9 9 9 11 15 19 20 20 19 20 20 22 23 25 26 29 29 27 25 23 20 18 17 18 18 18 18 18 17 17 17 17 18 20 21 23 27 28 30 29 26 25 26 27 28 30 29 26 22 18 20 26 31 35 36 32 33 38 37 32 34 37
25 25 23 21 19 14 12 14 16 17 13 8 7 9 12 28 48 45 34 30 28 32 37 35 28 18 10 6 5 7 7 7 7 8 9 9 9 10 13 20 23 23 22 22 21 22 26 31 33 35 33 26 20 19 18 17 17 17 17 18 18 18 18 17 16 16 17 17 20 21 24 27 29 31 30 26 26 26 27 29 30 29 24 22 21 22 31 42 47 47 39 29 30 39 39 34 36
25 26 24 23 21 18 16 14 14 17 18 13 8 8 11 20 33 37 31 26 25 27 26 20 14 8 5 5 7 7 7 7 8 8 8 8 9 10 16 23 27 26 25 24 23 23 26 32 37 35 27 19 17 17 17 16 16 16 17 17 18 18 17 17 16 16 17 18 20 22 24 25 29 33 30 26 28 28 28 28 27 25 23 24 26 25 32 44 52 55 55 44 30 32 40 39 37
25 26 24 23 23 21 19 17 15 15 17 19 13 9 18 25 23 22 19 18 22 21 17 12 7 6 6 7 7 6 6 7 8 9 8 8 9 10 16 25 29 28 26 26 24 23 26 35 40 31 20 17 17 16 16 16 15 16 17 17 18 18 17 17 16 16 17 19 20 22 24 25 27 29 28 26 27 28 28 28 24 21 21 26 31 32 33 40 49 55 62 64 48 31 35 42 41
23 26 24 22 23 23 21 19 18 17 18 21 18 14 20 22 15 13 13 12 15 14 10 8 6 7 7 6 6 6 7 8 8 9 8 9 9 10 19 29 31 29 27 28 27 26 31 40 40 27 16 15 15 15 15 15 15 16 17 18 18 17 17 16 17 17 18 20 21 22 24 26 27 28 28 27 28 28 27 24 21 20 22 30 40 45 48 51 58 64 67 71 62 41 33 39 43
23 25 26 24 23 23 23 21 18 18 20 23 24 19 19 20 13 11 12 10 10 10 8 7 7 7 7 6 7 7 7 8 8 9 10 11 9 11 22 32 33 30 29 31 31 33 36 41 38 24 15 14 14 14 15 14 15 16 17 18 18 17 17 17 17 18 19 21 22 23 25 27 27 28 28 28 28 27 24 19 18 20 23 30 43 55 64 70 76 80 72 60 54 43 38 42 45
26 25 27 26 23 22 24 23 20 19 19 23 26 24 23 26 20 11 9 9 9 9 9 9 7 8 9 9 10 10 11 12 13 16 18 18 13 13 24 33 33 29 30 32 33 36 37 39 35 24 15 14 13 13 14 15 15 16 18 18 18 17 17 17 18 19 21 22 23 25 27 28 28 28 28 28 27 25 22 19 16 16 18 21 30 39 48 58 70 80 65 43 39 37 37 44 50
32 28 29 28 24 23 23 23 22 20 18 20 24 26 25 27 26 16 9 14 18 15 10 10 9 10 12 13 14 14 17 19 21 23 26 27 22 17 23 31 33 32 33 33 33 37 38 36 31 22 15 13 13 14 14 15 15 16 18 18 17 17 17 19 20 21 23 23 25 27 28 29 29 29 28 27 26 23 21 19 17 15 15 14 15 17 20 23 34 49 48 44 51 52 47 47 52
39 32 30 31 26 23 22 20 22 23 21 19 19 23 25 25 27 22 16 24 32 22 13 12 12 15 17 17 18 18 19 21 24 26 28 31 29 24 24 29 33 34 34 33 33 36 35 31 26 19 15 13 13 14 15 15 15 17 18 18 17 17 19 21 22 23 23 25 27 29 30 31 31 30 29 27 25 24 21 19 19 18 18 15 12 11 10 9 11 19 34 54 71 72 68 65 61
45 39 33 33 30 26 22 18 19 23 23 20 17 19 22 25 26 23 22 29 30 19 15 16 16 20 22 20 20 21 22 23 25 27 28 30 31 30 28 29 31 33 34 33 33 33 30 25 20 16 14 13 14 14 15 16 16 16 18 18 17 17 20 22 23 24 25 27 29 32 34 33 32 31 29 27 25 24 24 23 24 24 20 17 15 13 12 13 11 9 18 46 75 82 77 76 76
49 46 38 34 31 29 25 17 16 22 24 22 20 17 18 23 26 23 20 21 19 14 15 18 21 25 24 24 24 23 25 26 25 26 25 25 26 27 28 29 30 31 32 33 32 29 25 20 17 14 14 14 14 15 15 15 15 17 18 18 17 18 21 23 24 25 27 29 32 34 35 33 32 31 28 27 26 26 26 25 26 25 23 23 22 18 17 22 28 29 26 29 55 84 88 85 89
51 52 47 39 34 31 28 19 14 19 21 21 22 20 17 19 23 25 21 15 11 14 18 18 22 28 26 27 28 27 29 30 27 26 25 25 24 23 24 23 24 24 25 26 26 24 21 17 16 15 14 15 15 15 15 15 15 17 18 18 17 18 21 24 25 27 28 31 33 34 34 33 31 29 27 27 26 27 26 25 24 23 26 29 26 20 16 20 31 48 57 49 50 78 96 95 96
51 54 52 47 40 34 31 24 16 15 17 19 22 23 21 18 18 24 27 21 11 12 22 25 23 26 30 31 31 31 34 35 33 31 29 29 28 27 26 23 22 22 22 22 21 20 18 17 16 15 15 16 16 15 15 15 15 17 18 17 18 19 22 25 26 27 29 31 33 33 32 30 28 27 27 27 27 26 25 24 23 23 25 25 23 19 15 21 36 52 69 74 71 80 93 94 96
46 50 52 52 48 40 35 30 22 14 13 18 22 23 24 21 18 20 27 30 22 12 19 31 30 27 30 34 34 34 37 39 40 38 35 35 36 33 30 29 28 26 25 24 23 23 22 20 19 18 18 18 17 16 15 15 16 17 18 17 18 19 22 25 26 27 29 31 32 33 31 29 29 29 29 28 27 25 25 25 24 24 24 23 21 19 16 21 41 57 68 79 86 90 91 88 89
37 43 48 51 52 47 41 36 27 17 16 21 23 23 24 24 21 20 22 27 30 23 19 27 35 34 32 34 33 34 39 43 44 44 44 47 49 44 39 36 35 34 33 30 26 25 25 25 23 21 21 20 17 16 15 16 17 18 18 18 17 19 21 25 26 27 29 30 31 31 30 30 31 31 30 29 27 25 26 25 25 24 23 23 22 22 19 16 22 33 43 58 75 87 90 85 83
28 34 42 47 50 49 47 43 34 26 25 27 26 22 21 25 26 23 20 20 26 31 31 31 38 44 40 36 34 33 37 40 42 44 46 49 52 51 47 43 41 39 36 31 25 22 22 24 26 25 24 21 17 16 16 17 18 19 18 18 18 20 22 24 25 27 29 30 31 30 30 30 32 33 31 29 28 27 26 25 24 23 22 23 22 22 22 20 17 16 18 26 39 55 66 68 68
20 25 32 41 45 47 50 49 43 37 34 32 28 21 19 26 30 26 23 22 19 24 33 36 43 51 48 40 35 37 42 40 41 49 49 42 42 48 50 49 50 50 43 34 26 22 21 21 24 26 24 20 17 16 17 18 18 19 18 18 19 21 23 24 25 27 29 31 31 30 30 32 34 33 30 30 30 29 27 25 24 23 23 23 23 23 23 21 20 18 16 15 17 24 31 35 37
14 18 23 31 39 43 47 50 49 44 39 35 30 21 17 24 31 30 27 24 21 18 23 29 37 47 47 40 39 51 58 45 40 58 60 42 35 46 53 55 61 66 58 44 32 23 21 20 19 22 21 18 17 16 18 18 18 18 18 18 21 23 24 24 26 28 29 30 30 29 31 34 35 34 31 31 31 30 28 26 25 24 24 23 23 25 24 23 22 19 18 16 14 14 15 16 16
12 13 16 21 28 36 42 48 51 50 44 40 33 22 17 21 29 33 28 24 24 21 18 21 25 33 37 35 37 49 54 41 39 61 64 42 34 47 59 65 75 81 73 60 43 24 17 18 16 18 18 17 17 17 18 19 18 18 18 19 22 24 24 25 26 28 29 29 28 29 31 34 35 35 34 33 32 31 30 28 27 25 24 25 25 25 25 24 23 21 19 17 15 14 13 13 13
14 12 13 14 18 26 35 41 48 51 49 46 38 27 21 23 28 30 27 23 25 24 20 19 19 22 28 31 33 37 38 33 35 49 49 37 40 52 60 67 76 78 70 65 55 30 16 17 16 16 18 17 18 18 18 18 18 18 19 22 24 25 24 25 27 28 29 28 28 29 32 34 34 35 36 36 34 33 31 30 28 27 26 25 25 25 25 25 23 22 20 18 16 15 13 13 12
18 15 15 13 13 19 26 33 39 46 49 50 45 35 29 28 27 26 24 23 25 25 23 21 18 18 20 23 27 30 31 32 34 38 37 37 46 55 57 57 61 61 55 57 56 35 18 17 16 16 18 17 18 19 18 18 18 20 22 24 25 25 25 26 27 29 29 28 28 30 33 35 36 36 36 36 35 34 33 31 29 28 28 27 26 25 24 24 24 23 21 19 17 15 13 13 12
23 21 18 13 11 13 17 24 31 37 45 49 49 44 38 33 29 26 23 23 25 25 24 24 21 19 19 18 21 23 24 27 29 32 33 38 46 49 46 43 45 52 53 52 51 40 29 22 18 17 18 18 19 19 19 19 19 22 25 25 25 25 26 27 29 30 30 29 30 31 33 35 36 35 35 36 35 34 33 32 31 29 29 28 27 26 25 25 24 23 21 19 18 16 14 13 13
30 23 19 17 14 12 12 16 23 30 37 44 49 48 44 39 34 30 26 25 27 25 23 26 23 21 22 19 18 19 19 20 23 24 24 30 35 34 30 27 29 40 50 51 52 53 48 35 24 19 18 18 19 20 20 20 22 24 25 25 25 26 27 28 30 30 30 30 31 32 33 34 35 35 35 35 35 35 34 32 31 30 30 29 27 26 25 24 24 23 21 19 17 16 15 13 13
36 29 23 23 21 16 13 12 15 22 28 36 44 48 48 44 39 34 30 29 32 27 21 24 26 24 24 22 20 21 20 20 20 20 20 21 21 20 20 19 18 24 30 35 44 54 54 44 35 28 21 19 20 20 21 22 24 26 25 25 27 28 28 29 30 31 30 30 31 32 33 33 34 35 35 35 35 35 34 33 32 31 30 30 29 27 25 25 24 22 20 19 18 16 15 14 13
35 33 28 26 24 20 16 13 12 15 20 27 35 42 47 48 43 39 35 32 33 30 22 23 26 25 24 23 23 24 24 23 21 20 20 20 18 18 19 18 17 18 19 21 28 36 41 49 55 50 37 30 26 24 23 25 27 27 26 27 28 29 30 30 31 31 30 31 31 31 32 33 33 34 34 35 36 35 34 33 33 32 32 31 30 28 26 25 23 22 20 18 16 16 15 14 14
Wind_Speed
26 25 24 24 25 26 27 27 25 24 25 23 20 18 18 15 11 12 16 18 21 22 19 17 18 20 20 23 26 28 28 29 29 29 30 32 32 33 33 33 31 29 28 27 26 24 22 22 21 21 19 18 18 19 20 22 23 22 25 30 30 28 28 28 31 35 37 39 41 42 41 38 34 29 26 25 24 23 19 16 11 4 1 1 2 6 9 13 16 17 17 15 13 11 9 8 6
28 27 26 26 26 27 28 28 26 25 24 23 21 19 21 19 15 15 19 23 25 25 22 20 20 21 22 24 27 28 28 29 29 29 30 31 32 33 33 33 32 30 28 26 24 22 21 20 19 18 16 15 16 19 21 22 22 21 23 26 27 27 29 30 33 37 40 42 43 43 40 35 30 27 26 25 23 19 16 13 8 2 2 1 1 3 5 9 14 15 16 16 15 13 11 10 7
29 29 28 27 28 29 28 28 27 25 25 24 24 23 22 21 20 21 23 27 28 25 23 22 22 22 23 24 26 27 27 28 28 29 30 31 32 32 32 32 30 28 26 23 21 20 19 16 14 14 14 15 19 21 21 20 20 21 22 25 27 29 31 31 34 38 40 41 42 41 37 31 28 27 26 22 18 15 13 10 5 2 2 2 1 2 3 5 10 13 14 15 14 14 12 11 10
31 30 30 29 30 32 30 29 27 27 27 26 25 25 24 22 23 24 25 27 28 26 24 24 23 24 24 25 26 26 26 27 28 29 30 31 31 32 31 30 28 25 23 21 19 18 16 13 11 12 15 18 21 21 20 20 21 24 26 27 28 30 31 32 34 37 39 40 39 35 30 28 27 25 22 18 14 13 11 8 3 2 2 3 4 4 5 1 6 10 11 12 12 12 11 11 10
32 31 31 31 32 33 32 31 29 28 28 27 26 26 25 24 24 24 23 24 25 24 23 23 23 24 24 25 25 26 27 27 29 30 30 30 30 30 28 26 25 23 21 20 19 18 15 13 13 15 17 18 20 20 21 22 24 25 26 27 28 29 30 32 34 35 36 35 31 28 26 25 24 22 19 16 13 12 10 6 3 2 3 4 6 8 5 2 2 6 7 9 10 10 10 10 9
32 31 31 32 34 34 33 33 31 30 29 27 26 27 27 26 25 24 24 25 25 25 24 23 24 24 24 25 26 26 27 28 29 30 30 30 29 28 26 24 23 22 21 20 18 16 14 14 15 15 15 17 19 21 23 23 24 25 25 26 27 28 30 31 32 32 31 28 25 24 23 21 20 20 18 15 12 10 8 5 3 3 5 5 7 10 6 2 1 1 3 5 7 8 8 8 8
31 31 32 34 34 33 33 33 31 29 29 28 26 26 28 28 26 26 25 25 25 26 24 23 23 24 25 26 27 27 28 28 29 29 29 29 28 26 25 24 23 21 20 19 18 17 16 16 16 16 16 17 19 21 23 24 25 25 26 27 28 28 29 30 30 28 26 23 22 20 18 17 18 17 16 13 10 8 5 4 4 4 4 5 7 9 8 4 1 1 2 3 3 5 6 6 6
29 31 32 33 32 31 32 32 30 28 28 28 27 27 28 27 26 25 24 22 22 23 24 23 24 25 26 27 28 28 28 27 28 28 28 27 26 24 23 23 22 21 20 19 17 17 17 17 18 18 19 20 20 21 22 24 24 25 27 28 28 28 29 28 26 24 22 21 19 15 14 14 15 14 13 11 8 6 4 4 4 4 3 4 7 8 7 4 1 2 3 3 2 1 3 3 2
28 30 32 31 30 30 31 31 30 28 28 29 28 27 28 27 26 25 25 25 25 25 26 27 27 28 28 28 28 28 27 28 28 27 26 26 24 23 22 22 22 22 22 19 17 17 18 18 20 20 21 21 20 21 22 23 24 25 26 27 27 27 26 24 21 20 19 17 14 11 12 13 14 14 13 11 8 6 5 4 4 4 3 4 7 8 8 7 4 3 4 5 5 5 5 5 4
28 30 31 30 29 29 29 29 29 28 28 29 28 28 29 29 29 29 29 30 30 29 29 29 29 29 29 29 29 28 28 27 27 26 25 24 23 23 23 23 23 23 22 20 19 19 20 21 22 23 23 22 21 22 23 24 24 25 25 26 25 24 21 19 19 18 16 12 9 10 11 12 14 14 13 11 8 7 5 5 5 5 5 6 8 8 9 8 8 7 8 8 8 9 11 10 8
29 29 30 29 27 27 27 27 27 27 28 28 29 28 29 30 31 31 30 30 30 29 29 30 29 29 29 29 29 28 27 26 25 25 24 23 23 23 24 24 24 24 22 21 20 21 23 24 24 25 26 26 25 25 25 24 24 24 24 23 21 19 18 17 16 14 11 8 8 10 11 11 13 14 13 11 9 7 6 6 7 8 9 10 10 10 10 10 10 10 10 9 10 11 13 12 11
28 28 28 27 26 25 25 26 27 28 28 28 28 27 27 28 29 29 30 30 30 29 29 29 28 28 29 29 28 27 25 24 24 24 23 23 23 24 24 25 25 24 23 22 21 22 23 24 24 25 26 27 26 25 24 24 23 23 21 19 17 17 16 14 12 10 8 7 8 10 11 12 14 16 15 13 11 10 10 11 12 13 14 14 14 13 13 13 13 13 12 10 9 10 12 13 14
27 27 27 27 26 25 24 25 26 27 27 28 28 28 26 26 26 27 27 28 28 28 27 26 26 26 27 27 26 24 23 22 22 23 23 23 24 25 25 25 25 24 23 22 22 22 22 23 23 24 24 24 24 24 23 22 20 18 16 16 15 14 12 10 9 7 6 8 9 11 12 13 14 16 16 14 13 14 15 16 17 19 20 19 19 19 18 19 20 21 20 19 17 14 11 10 11
27 27 26 26 25 25 24 24 25 25 26 28 28 28 27 26 25 26 26 25 25 25 25 24 25 25 25 24 22 22 21 21 22 23 24 25 25 25 25 26 26 25 24 24 23 23 23 22 22 23 23 23 23 21 20 17 15 14 14 13 12 10 9 7 6 6 6 8 8 11 12 13 14 15 15 15 15 15 16 17 18 20 22 21 21 21 21 22 23 23 23 22 22 21 20 16 10
27 26 24 23 24 25 25 25 26 25 26 28 28 28 28 27 26 26 26 24 23 23 22 23 23 22 22 20 20 20 21 22 22 23 24 25 25 26 26 27 27 27 26 25 24 24 23 22 22 22 23 22 19 16 14 13 13 12 12 10 8 7 6 6 5 5 6 7 7 9 11 12 13 14 15 16 16 16 16 16 17 19 20 20 19 20 20 22 23 24 23 23 22 22 23 22 16
25 25 22 21 23 24 25 26 28 26 26 26 27 28 28 29 28 26 25 23 22 22 22 22 21 21 21 21 21 21 22 22 22 23 24 25 26 27 28 28 28 27 26 25 24 23 22 22 22 21 20 18 14 12 12 12 11 10 8 6 5 5 5 5 6 6 6 7 6 8 11 12 12 14 16 17 17 16 15 16 17 17 18 18 19 20 22 24 26 26 25 25 24 23 23 24 20
22 23 21 21 22 24 25 26 27 27 26 27 27 28 28 29 30 28 26 24 23 23 22 21 21 21 21 21 21 22 22 22 23 23 25 26 27 27 27 27 26 25 25 24 23 21 21 20 20 18 15 12 10 11 11 10 9 7 5 4 5 6 6 6 7 7 7 7 7 8 11 12 13 14 16 17 17 16 16 17 17 17 17 19 20 23 25 26 27 27 28 27 27 25 24 25 23
20 21 23 23 23 24 25 24 25 26 27 28 28 28 29 29 30 30 28 26 24 23 23 22 22 22 21 20 21 21 22 22 23 24 24 25 25 25 24 24 24 23 23 21 20 19 18 17 15 13 10 10 10 10 9 8 6 3 4 5 5 6 6 7 8 9 9 9 9 9 11 13 14 16 17 17 17 16 17 18 19 20 21 22 24 25 26 26 27 28 29 30 30 28 26 26 25
19 21 22 22 22 24 23 22 23 25 26 27 27 28 28 29 29 29 28 27 25 24 23 23 22 21 20 20 21 22 22 23 24 24 24 23 23 22 22 22 22 21 19 18 17 16 14 12 10 9 9 9 9 8 6 4 2 4 5 5 6 6 6 7 8 9 10 10 11 11 12 14 16 17 18 18 18 18 18 20 21 23 24 25 26 27 27 27 28 29 30 31 31 30 28 26 26
19 20 21 22 22 23 23 22 24 25 25 26 26 27 28 28 28 27 27 26 25 24 23 22 21 21 20 20 21 22 23 23 23 22 21 20 20 20 20 19 18 16 15 13 12 10 9 8 8 8 9 9 8 5 2 1 4 5 5 5 5 5 6 8 9 11 12 12 12 12 13 14 16 18 18 18 18 18 18 19 21 23 25 26 27 28 28 28 28 29 30 30 30 30 29 26 25
19 21 22 23 24 25 25 25 25 25 25 25 25 26 27 27 26 25 24 23 23 23 22 20 20 20 21 22 22 23 23 22 20 19 18 17 16 16 15 14 12 10 9 8 7 6 6 7 7 8 7 7 5 1 2 5 6 6 5 5 5 5 7 9 11 13 14 13 12 12 12 13 15 16 16 16 15 15 15 18 20 22 24 25 26 27 28 29 29 29 31 31 30 31 31 28 24
18 22 24 24 24 26 27 27 25 25 25 25 24 24 25 25 25 24 22 21 21 21 19 19 20 21 22 23 23 24 23 21 18 16 14 13 12 11 10 8 6 5 5 5 5 5 6 6 6 5 5 3 1 4 6 7 7 6 5 5 5 7 9 10 12 14 15 14 13 12 11 12 13 13 12 12 11 12 14 17 19 21 22 23 24 25 26 28 29 30 32 33 32 31 32 31 27
12 18 24 26 26 27 29 28 27 26 25 25 24 23 23 23 23 21 21 19 19 19 18 19 21 22 23 23 23 22 20 17 15 13 11 10 9 8 7 6 4 4 4 5 5 5 4 3 3 2 1 3 6 8 9 8 7 6 5 5 6 8 10 11 12 13 14 14 13 13 12 12 11 10 9 9 9 11 14 17 19 21 22 23 24 24 25 27 28 29 31 33 33 31 32 33 31
9 11 16 22 26 27 27 27 27 26 25 25 23 22 22 21 21 19 18 17 17 19 19 20 21 22 21 21 20 19 16 14 13 11 9 8 8 8 8 6 5 5 5 5 4 3 1 2 3 4 6 8 10 10 10 8 7 6 6 7 8 10 11 11 12 12 12 12 13 13 12 11 10 8 8 8 9 12 15 17 19 21 22 23 24 24 25 26 27 29 30 32 32 31 32 33 33
11 10 11 15 21 26 26 26 26 26 26 25 22 21 21 20 19 18 17 17 17 19 19 19 20 19 18 18 16 15 13 13 11 10 9 9 8 8 8 7 6 5 5 5 3 1 4 5 6 8 10 11 11 11 10 9 8 8 8 9 9 11 11 11 11 11 10 11 11 11 11 10 9 8 8 9 11 13 15 17 19 21 21 23 23 23 25 24 24 27 29 30 32 31 31 33 34
12 12 12 12 15 21 25 27 28 28 27 25 23 21 21 20 18 17 17 17 17 17 18 17 16 15 15 15 14 13 13 12 11 10 10 10 9 9 9 8 7 6 6 4 3 5 7 7 8 10 11 12 12 11 10 9 9 9 9 10 10 11 10 10 10 10 10 10 11 11 12 11 10 10 10 10 11 13 15 17 18 20 20 22 22 22 23 23 23 25 28 29 30 29 28 31 34
12 13 13 13 14 15 18 23 27 30 30 27 23 20 20 19 18 17 16 16 15 15 15 14 13 13 13 14 13 13 13 13 12 12 12 10 9 8 8 8 8 7 6 5 7 8 9 9 10 11 11 11 11 10 10 10 11 10 10 10 10 10 10 10 10 11 11 11 12 12 12 12 13 13 13 12 13 15 16 17 18 19 19 20 20 21 21 21 21 24 26 28 29 27 25 29 33
13 13 14 14 14 14 13 15 18 23 26 25 21 19 18 17 17 16 15 14 13 13 13 13 13 13 14 14 14 14 14 14 13 13 12 10 8 7 7 8 8 7 7 9 10 10 10 11 11 11 11 11 11 11 11 11 11 11 11 10 10 9 10 11 12 13 13 14 14 13 13 13 14 15 15 16 16 17 18 18 18 18 18 18 18 19 19 19 21 24 26 28 27 25 23 26 31
13 13 14 15 15 14 13 11 10 13 18 20 19 18 17 16 17 16 15 14 14 14 14 14 14 14 14 15 15 15 15 14 13 13 11 8 6 6 8 8 8 8 11 12 12 12 11 11 11 11 12 12 12 12 12 11 11 10 10 9 9 10 11 12 13 13 14 14 14 14 14 15 15 15 15 16 17 17 18 18 18 18 18 18 18 18 18 19 21 23 26 27 26 24 22 23 28
13 13 14 15 15 15 14 12 9 9 12 16 18 17 16 16 16 16 15 15 15 15 16 16 16 15 15 15 16 16 16 15 12 11 9 7 6 7 9 10 11 12 13 13 13 12 11 11 11 12 12 12 13 12 12 11 10 10 9 9 10 11 12 13 13 14 14 14 14 15 15 16 16 15 15 15 16 16 17 17 18 17 18 18 18 19 19 20 22 23 25 25 23 23 21 20 23
14 13 13 14 14 14 13 12 10 8 9 12 16 17 16 16 16 16 15 15 16 16 17 17 17 16 15 16 17 16 16 13 9 8 8 7 8 10 12 13 15 14 14 13 12 12 11 11 11 11 12 12 13 12 11 9 8 8 9 10 11 12 13 13 13 13 13 13 14 15 15 15 15 15 15 15 15 15 16 17 17 18 18 18 19 19 20 21 22 24 25 23 21 21 21 19 21
15 14 13 13 13 12 12 11 9 7 7 9 13 16 17 17 17 16 15 15 16 17 17 17 17 16 16 16 17 16 15 11 8 8 8 10 13 15 16 16 16 15 14 13 12 12 11 11 11 12 12 12 11 10 8 7 7 8 9 10 11 12 12 12 12 12 13 13 14 14 14 15 15 15 15 15 15 15 16 17 17 18 18 19 20 20 21 22 23 23 23 21 19 20 20 19 20
16 15 13 12 11 10 10 10 8 6 6 7 10 14 16 16 16 15 15 15 15 16 17 16 16 16 16 16 17 15 13 10 10 11 11 14 17 18 18 17 16 15 14 14 13 12 12 11 12 12 11 10 8 7 6 7 8 8 9 10 11 11 11 11 11 12 12 13 13 14 14 15 16 16 16 15 15 15 16 17 18 19 19 21 22 22 21 21 22 22 22 20 18 18 19 19 20
17 17 15 12 11 9 8 7 7 6 5 6 8 11 13 15 15 14 14 14 14 15 16 16 16 16 15 15 16 15 13 11 12 14 15 17 19 19 18 17 16 15 14 14 13 12 12 12 11 10 9 7 6 6 7 8 8 8 9 10 10 10 10 11 11 11 12 13 13 14 15 16 16 16 16 15 15 16 17 18 19 20 21 22 22 22 20 19 20 22 22 20 17 17 18 19 19
19 20 17 14 12 10 9 7 5 5 5 5 7 8 10 13 13 13 12 13 13 15 16 16 15 15 15 15 17 16 13 13 14 17 19 19 18 18 17 17 16 14 14 13 13 13 12 11 9 8 7 6 7 7 7 7 7 8 9 9 9 10 10 11 11 11 12 13 14 15 16 16 16 16 16 16 16 17 18 18 19 20 21 22 22 22 20 19 20 21 23 22 18 16 17 19 19
21 22 20 17 14 12 10 9 6 4 4 5 4 5 7 10 12 13 12 12 14 15 16 15 14 14 15 16 17 15 14 15 17 19 20 19 18 18 18 17 16 14 14 13 13 12 10 8 7 6 5 6 6 6 6 6 7 8 9 9 9 10 11 11 12 12 13 14 15 16 16 17 17 16 16 17 17 18 18 19 19 20 21 22 22 21 19 18 19 21 22 24 21 17 17 18 19
24 24 23 19 16 14 13 12 10 6 4 5 4 3 4 6 8 10 12 13 14 14 14 14 14 14 16 17 16 16 16 17 19 19 18 17 17 17 18 17 16 14 13 13 12 11 9 7 5 4 5 5 5 5 4 5 7 8 9 9 10 10 11 11 12 12 13 15 16 16 16 17 17 16 17 17 17 18 18 19 20 21 22 22 22 21 19 19 20 21 23 24 24 20 17 17 18
27 26 26 22 20 17 15 15 13 10 7 5 5 3 3 3 4 6 9 12 12 12 13 13 15 16 18 17 16 16 17 18 18 17 16 15 15 16 17 16 14 13 12 12 11 10 9 7 5 4 5 5 4 3 2 3 6 7 9 9 10 10 11 11 12 12 14 15 16 17 17 17 17 17 17 17 17 18 19 20 21 22 23 22 22 21 20 20 21 22 23 24 25 22 18 17 18
29 28 28 26 24 21 19 18 16 14 11 7 5 4 4 3 3 5 7 10 12 13 14 14 15 17 17 16 15 16 17 18 18 17 16 15 16 17 17 16 14 13 12 12 11 10 9 7 5 5 4 4 3 2 1 3 5 7 8 9 10 10 11 11 12 13 14 15 16 17 17 17 17 17 17 17 18 18 20 21 22 23 23 23 22 22 22 22 23 24 24 25 24 23 20 18 18
30 30 30 30 28 24 23 21 18 17 15 12 9 6 6 5 5 7 9 11 12 14 14 14 14 15 15 15 14 15 16 16 16 16 16 16 16 17 17 16 15 14 13 12 11 10 8 7 6 5 5 4 3 1 1 3 5 7 8 9 10 10 11 12 12 13 14 15 16 16 16 17 17 17 17 17 18 19 20 22 23 24 24 24 24 24 24 24 24 24 25 25 24 23 22 21 19
32 31 32 33 31 29 27 24 21 19 17 16 14 11 9 8 7 8 12 12 12 12 13 13 13 14 14 14 14 15 16 16 15 15 15 16 16 17 17 16 15 14 13 12 10 9 8 8 7 7 6 5 4 2 3 4 5 7 9 10 10 11 11 12 13 14 14 15 15 16 16 16 16 16 17 18 19 20 21 23 24 26 26 27 26 26 27 26 25 24 24 24 24 24 23 23 21
34 32 34 37 35 33 31 28 24 21 20 19 17 15 12 10 9 10 13 14 13 12 13 13 14 14 14 14 15 15 16 16 15 14 14 14 15 16 16 16 15 14 13 12 11 10 9 9 9 9 8 6 5 4 4 5 7 8 10 11 11 11 12 12 13 14 14 15 15 15 16 16 17 17 18 19 21 22 23 24 26 27 28 28 28 28 28 28 26 24 23 23 24 25 25 24 23
37 36 37 39 39 36 34 32 26 24 25 22 18 17 15 13 13 13 14 16 15 14 14 15 15 16 16 16 16 16 15 15 15 15 14 13 13 14 14 15 15 15 14 12 11 11 11 10 10 10 9 8 7 6 6 7 8 9 10 11 12 12 12 13 13 14 14 14 15 15 16 17 18 19 20 21 22 23 24 25 26 27 29 29 29 29 29 28 27 26 24 23 24 25 26 26 25
41 42 41 40 41 40 38 35 30 28 28 24 20 19 16 16 16 15 15 16 16 15 16 17 18 18 18 18 17 16 16 16 16 15 15 13 13 13 13 13 14 14 14 13 12 12 11 11 11 11 10 10 8 8 8 9 9 10 11 12 13 13 13 13 14 14 15 15 15 15 16 17 19 20 22 23 24 24 25 26 27 28 30 31 31 30 29 29 28 27 26 24 23 24 27 27 26
46 48 45 42 43 43 42 39 33 32 31 26 22 21 18 18 18 16 16 17 17 17 17 19 20 20 20 20 20 19 18 17 17 15 15 14 13 13 12 12 12 12 13 13 13 13 13 13 12 12 12 11 10 10 10 10 11 11 12 13 13 14 14 14 15 15 15 15 15 16 17 19 20 22 23 24 24 25 26 27 28 30 31 31 31 32 31 31 30 29 27 25 23 23 26 27 27
50 52 49 45 45 45 45 42 37 35 32 27 24 23 21 20 19 18 18 18 20 20 19 20 22 23 22 22 22 21 20 19 18 16 15 15 15 14 14 13 12 11 12 13 14 14 14 14 14 14 13 13 12 12 12 12 12 13 13 14 14 14 15 15 15 15 15 15 16 17 18 20 21 23 24 25 25 26 27 28 30 31 32 32 32 33 33 33 32 31 28 26 22 22 25 28 28
55 55 52 49 47 47 47 46 42 36 30 28 27 25 24 23 20 19 20 21 22 21 21 22 23 24 24 24 24 23 22 21 20 19 17 16 16 15 14 12 12 12 12 13 14 15 15 15 15 15 15 14 14 14 14 14 14 15 15 15 15 15 16 16 16 16 16 16 17 19 20 22 23 24 24 25 27 28 29 30 31 32 33 34 35 35 34 34 34 33 31 27 25 24 26 28 29
58 57 55 53 51 50 49 49 46 36 29 30 31 30 28 25 23 23 23 24 24 22 23 24 25 25 25 25 25 24 24 23 22 21 19 18 17 16 14 12 13 13 14 15 16 17 16 16 16 16 16 16 16 15 15 15 16 16 17 17 16 16 17 17 18 17 17 18 19 21 22 23 24 24 25 27 28 29 30 31 32 33 34 35 36 37 37 36 35 35 34 31 30 29 29 30 30
62 60 58 57 56 54 51 49 47 39 34 35 37 35 31 26 27 27 25 26 25 25 25 25 26 27 27 28 26 25 25 25 24 23 22 21 20 19 17 15 16 16 17 17 18 18 17 16 17 17 17 17 17 17 17 17 17 18 18 19 18 18 18 18 18 18 18 19 21 22 23 24 25 26 27 28 29 30 31 32 33 34 35 35 36 38 39 39 38 37 36 35 34 33 33 33 33
65 64 62 60 59 56 51 49 49 45 41 42 41 38 33 29 30 31 29 29 28 27 27 27 28 28 29 30 28 26 27 28 27 25 25 24 23 22 22 21 20 19 18 17 17 18 18 16 16 16 17 18 18 18 19 18 19 19 20 20 20 19 19 19 19 19 20 21 22 24 24 25 25 27 28 29 30 31 32 33 33 34 35 36 37 38 40 41 41 41 40 39 38 37 37 37 37
65 65 64 62 60 57 54 53 53 51 48 47 45 40 36 34 34 35 35 33 31 30 30 30 29 29 30 30 29 29 30 31 30 27 26 26 25 25 25 25 24 22 21 19 18 19 19 18 16 16 17 19 19 20 20 20 21 21 21 21 21 21 20 20 20 21 21 22 23 24 25 26 27 28 29 30 31 32 33 33 34 35 36 37 38 39 40 42 43 43 43 43 42 42 41 41 41
62 65 65 62 59 58 59 59 57 56 53 50 46 41 39 38 38 40 40 37 34 33 33 32 31 30 30 30 31 31 33 34 31 29 29 28 27 26 27 28 27 26 25 23 21 20 21 20 18 18 18 19 21 21 22 22 23 23 23 23 23 22 22 21 22 22 23 24 25 25 26 27 28 29 30 31 32 33 34 35 35 36 37 38 39 40 41 42 43 44 44 45 45 45 45 44 43
58 62 62 61 62 64 65 63 61 60 56 51 49 46 42 41 41 43 42 38 37 37 35 34 34 33 32 32 32 33 35 35 34 32 31 29 28 29 29 29 29 28 27 26 24 23 22 22 21 19 19 20 21 23 24 25 25 25 25 24 24 23 23 23 24 24 25 26 26 26 27 28 29 30 31 33 34 34 35 36 36 37 38 38 39 40 41 42 43 44 45 45 46 46 46 45 44
54 55 58 65 69 69 68 65 63 63 58 53 52 51 47 45 44 45 44 40 39 40 39 38 36 35 34 34 34 35 36 35 35 35 33 31 30 30 30 30 29 29 28 28 27 26 24 23 23 22 21 21 23 24 26 26 26 27 27 26 25 24 24 25 26 26 27 28 28 28 28 29 30 31 33 34 35 36 36 37 37 38 39 40 40 40 41 42 43 44 45 45 46 46 45 45 44
50 52 57 66 70 69 67 66 65 64 60 56 56 55 52 48 45 46 46 43 43 44 42 41 40 37 36 37 36 37 37 36 36 36 34 32 32 32 32 31 30 29 29 30 29 28 27 25 25 24 23 23 24 26 27 28 28 28 28 28 26 25 26 27 28 28 29 30 30 30 30 31 32 33 34 35 36 37 38 39 40 40 41 42 42 42 42 43 44 45 46 46 46 46 46 45 44
48 52 56 59 63 66 68 68 67 66 64 62 60 58 54 50 48 49 48 46 47 48 45 44 43 40 40 39 38 38 38 36 37 37 35 34 34 34 33 31 31 31 30 30 30 30 30 29 28 27 26 26 26 27 28 29 30 30 30 29 27 27 28 29 30 30 31 31 31 32 33 33 34 35 36 37 38 39 40 41 42 43 43 44 45 45 44 45 45 46 47 47 47 46 46 46 45
47 51 53 53 55 61 66 69 68 68 67 65 63 60 55 53 53 53 51 49 51 52 49 46 45 44 44 43 40 39 39 39 39 38 37 36 35 34 34 33 33 32 31 30 30 31 32 32 31 31 29 28 27 28 30 31 32 32 31 30 29 29 30 31 32 33 33 33 33 34 35 35 36 37 38 39 40 41 42 43 44 45 46 47 47 48 48 47 47 48 48 48 48 47 47 46 46
48 49 49 50 52 57 62 66 67 68 69 67 67 63 57 56 57 57 56 55 54 54 51 48 48 48 47 45 42 41 42 42 42 41 39 38 36 35 36 36 35 33 31 31 31 31 32 33 34 34 33 30 28 29 31 32 33 33 33 32 32 32 32 33 34 35 35 35 36 36 37 37 38 39 40 41 42 43 44 44 45 46 48 49 49 50 51 51 50 50 49 49 49 49 48 47 47
Wind_Direction
204 199 197 201 205 208 209 215 221 221 218 215 219 219 206 195 201 229 237 236 240 246 251 249 247 251 256 262 269 277 283 287 289 291 293 295 298 301 304 307 310 311 312 311 311 310 308 305 301 296 293 291 288 289 294 295 294 293 290 291 294 300 306 311 316 317 318 322 326 328 328 329 328 329 331 331 329 328 329 330 330 318 280 5 69 48 47 55 61 64 65 65 64 66 66 61 53
205 200 200 205 207 213 215 216 223 225 223 223 227 225 213 204 210 230 239 242 245 248 253 257 257 260 264 266 269 273 278 283 286 289 292 294 297 299 302 304 306 308 309 309 310 310 310 309 304 298 291 290 292 295 296 295 296 295 289 291 299 306 309 311 314 316 318 322 323 325 327 328 328 330 330 328 327 330 332 332 333 289 257 25 83 34 33 56 66 68 71 72 71 71 70 70 65
207 204 204 207 210 217 220 220 228 230 230 234 235 232 225 223 227 236 241 241 244 250 256 258 262 265 268 269 270 273 277 281 286 290 293 295 297 300 301 303 305 307 308 309 311 312 312 310 306 300 294 293 295 294 293 295 299 300 299 300 304 306 308 309 310 312 314 317 319 322 325 326 328 328 327 327 331 337 337 334 333 241 258 1 15 349 344 41 69 73 75 75 74 74 73 73 71
209 207 207 209 214 221 223 224 231 234 233 235 236 233 229 231 236 241 244 244 248 254 260 263 263 266 269 270 271 274 278 282 287 291 294 296 298 300 301 302 305 306 308 312 313 313 310 302 297 294 289 290 291 292 296 298 298 298 298 300 302 305 307 307 306 307 310 314 318 321 324 327 327 326 325 329 337 341 338 333 329 229 277 352 5 335 306 333 69 74 77 76 75 71 68 67 66
210 209 209 211 216 221 223 222 226 230 232 234 234 233 229 231 238 244 248 251 254 256 261 264 264 266 270 272 275 278 282 286 289 291 294 297 298 300 300 302 303 305 311 313 312 310 301 290 290 289 288 290 292 294 296 295 295 296 297 300 302 305 306 306 305 307 311 316 320 324 326 327 325 324 325 329 336 337 332 330 328 279 316 348 354 341 317 222 73 61 68 77 82 74 66 56 52
212 212 212 214 218 222 224 224 224 228 230 232 234 235 233 234 241 248 254 258 258 258 260 264 265 268 271 276 280 283 286 288 290 292 295 297 298 298 299 300 301 307 313 312 308 301 291 284 284 284 286 290 293 293 291 291 291 294 297 299 301 305 307 308 310 313 316 321 325 328 329 328 326 326 327 332 334 331 328 333 340 338 346 355 358 2 20 109 202 38 46 69 87 83 72 55 46
213 214 216 218 221 224 227 229 229 230 231 234 238 240 239 241 247 250 255 262 262 258 260 265 267 269 274 280 284 286 287 289 291 294 296 296 297 297 298 299 303 310 313 308 301 294 288 284 282 278 277 281 284 285 286 289 291 293 297 299 303 308 311 314 316 318 321 325 329 333 333 332 333 334 339 344 341 333 333 345 353 357 4 7 11 18 39 70 184 253 350 30 72 86 77 57 43
214 216 218 220 223 226 230 234 235 236 237 239 242 245 246 246 249 247 249 258 260 257 260 267 270 273 277 281 284 286 288 290 293 296 297 296 297 298 299 303 307 310 310 304 296 290 289 288 286 282 281 283 284 288 293 296 296 295 297 302 308 313 316 317 319 321 324 330 335 340 343 344 349 354 2 5 359 352 352 359 1 6 8 8 14 18 28 45 65 293 320 342 341 78 70 39 13
214 217 219 220 224 227 230 235 238 240 242 244 245 246 247 247 246 247 250 256 260 261 265 270 273 275 278 281 284 286 289 292 293 295 296 296 296 296 299 304 306 308 307 302 294 290 289 288 287 285 285 288 290 293 296 298 297 297 300 306 311 314 316 319 321 324 328 336 346 356 358 2 9 17 22 21 15 11 10 10 7 11 8 357 2 8 17 21 11 330 307 309 297 270 282 300 304
213 216 219 220 224 229 232 236 240 244 246 247 246 246 248 249 250 254 257 259 263 267 270 272 274 277 278 280 283 286 289 290 292 293 293 293 292 294 298 302 304 305 304 299 293 288 287 287 287 287 288 290 291 292 294 297 300 303 307 311 313 316 319 323 324 327 337 349 5 11 8 13 22 31 34 29 24 21 20 15 8 8 5 357 350 350 355 355 347 331 315 303 290 275 276 284 288
211 215 219 221 224 229 235 241 245 247 249 249 248 249 250 252 254 258 260 262 265 268 270 272 275 277 279 280 282 284 286 287 289 290 289 288 289 293 298 299 300 300 298 294 290 286 284 285 286 287 290 292 294 296 299 303 306 308 310 314 317 320 323 325 328 339 352 6 21 17 12 20 30 40 44 38 35 31 26 22 18 18 17 13 6 358 354 351 346 340 332 314 294 283 281 282 280
212 216 220 221 223 229 236 243 246 247 249 251 252 255 255 256 257 259 261 263 266 268 270 273 275 277 279 279 281 282 284 285 287 287 287 287 290 294 297 297 297 296 294 291 289 287 285 284 285 287 289 291 295 298 302 304 307 310 314 318 322 324 325 331 342 357 14 30 31 21 21 30 42 51 52 49 49 48 48 47 44 42 39 35 31 27 24 23 23 22 20 8 340 309 294 287 282
214 218 222 223 223 228 235 242 248 248 250 253 256 259 259 259 259 260 261 262 264 267 270 273 274 276 278 278 278 279 282 284 284 284 285 287 290 292 294 296 295 293 291 290 289 287 286 287 288 288 290 292 295 298 301 305 310 316 320 322 325 326 333 348 5 27 43 45 36 30 34 43 51 53 53 53 55 56 57 58 57 52 47 45 43 44 47 49 48 46 43 39 33 19 356 324 298
217 221 225 227 230 235 242 249 253 253 253 255 258 262 262 262 262 261 261 261 264 267 270 271 273 275 277 276 276 278 279 280 280 281 283 285 287 290 292 293 293 292 290 290 288 287 287 289 290 292 294 296 297 299 304 311 316 321 323 324 326 334 354 14 40 53 50 46 42 38 43 48 49 47 48 52 53 54 57 59 58 50 45 47 51 54 55 53 46 40 37 36 35 31 27 18 356
219 223 228 235 240 245 250 255 256 256 257 258 261 266 266 264 265 264 262 263 265 267 269 271 272 273 274 275 276 278 280 279 278 279 281 284 287 289 290 290 290 291 291 289 286 286 288 290 293 295 297 297 299 305 313 319 320 323 325 328 337 0 26 49 61 52 43 44 44 44 45 44 44 45 49 52 53 53 57 58 50 41 41 46 50 50 45 37 30 26 26 27 29 28 27 26 21
220 225 231 239 246 250 252 255 255 254 255 258 261 266 266 264 264 265 263 263 265 266 268 270 272 273 273 274 277 280 280 279 279 281 283 285 287 287 288 288 288 289 288 286 285 286 288 292 295 297 298 299 305 315 320 321 322 326 333 348 14 43 61 67 58 46 41 41 44 45 42 43 46 50 53 55 56 55 54 48 37 32 36 41 42 38 32 27 26 25 26 26 28 28 28 26 26
219 227 234 239 245 251 253 253 254 253 254 258 262 265 266 263 262 263 263 262 263 266 267 269 272 272 272 275 278 280 280 280 282 283 284 285 285 285 286 287 287 286 284 284 285 287 290 294 295 295 298 305 315 320 320 322 327 336 4 39 61 74 74 63 54 49 45 41 43 43 44 48 53 56 57 56 55 51 46 41 38 38 40 40 37 34 31 29 29 29 27 27 27 28 29 29 28
225 232 237 241 247 252 252 253 257 259 259 262 265 267 267 264 261 261 262 261 261 264 265 266 269 269 271 274 278 279 280 281 282 283 282 282 283 285 287 287 286 284 284 285 288 290 292 294 292 292 301 312 317 317 320 327 338 18 68 81 90 83 67 57 54 51 46 45 46 47 49 53 55 57 56 54 53 50 48 48 47 46 44 41 37 33 32 32 31 30 29 27 25 25 26 30 31
232 236 241 246 253 256 253 253 256 260 262 264 267 269 267 264 262 259 260 261 261 260 260 262 264 265 269 272 275 278 279 280 280 280 280 281 284 288 290 288 286 285 287 288 289 290 290 290 292 296 306 312 312 315 325 340 43 92 98 104 95 75 58 54 53 51 50 52 53 53 52 53 55 56 56 58 61 59 56 53 48 42 38 34 32 29 28 29 28 29 28 28 28 27 25 26 29
236 239 246 250 253 255 254 255 258 260 262 266 269 269 268 264 261 258 257 259 259 257 257 258 260 263 266 270 273 276 277 275 274 276 279 284 288 290 291 288 286 285 287 289 289 290 289 290 298 304 308 310 311 316 333 106 117 113 114 108 89 67 54 54 55 57 60 58 57 56 55 54 55 56 57 62 66 63 55 47 39 32 28 26 24 23 22 23 23 24 24 27 30 32 30 26 26
244 244 248 252 254 253 253 257 261 262 262 266 270 271 268 263 259 256 255 255 255 255 255 255 257 261 265 268 270 271 271 270 270 275 282 287 289 290 291 287 286 285 287 292 293 292 293 297 304 309 310 310 307 288 144 131 126 121 115 101 78 61 58 61 63 63 63 61 58 57 56 54 53 55 57 59 61 55 44 34 27 21 19 18 17 16 17 17 18 19 19 22 26 31 31 28 25
255 251 251 256 259 256 255 258 262 262 263 266 271 271 268 262 256 253 252 250 249 251 251 253 258 262 265 267 267 266 266 266 268 273 278 283 286 288 288 284 284 290 297 300 299 296 297 303 312 318 319 311 228 154 139 130 125 118 108 90 70 67 68 68 66 64 63 61 59 57 53 50 51 52 52 52 47 36 24 17 13 10 7 8 9 10 12 13 14 15 15 18 21 25 27 27 25
274 261 257 258 259 259 258 260 263 263 265 267 270 272 268 260 254 250 247 244 243 247 249 253 258 261 263 264 264 262 261 263 263 264 271 276 278 278 276 279 287 298 303 299 293 290 298 317 340 1 56 132 145 139 130 126 123 115 103 85 76 75 73 68 65 63 60 57 55 54 52 49 49 48 43 39 28 14 5 1 359 358 358 0 3 5 8 9 12 13 13 15 18 21 23 23 22
308 289 272 262 258 258 258 261 264 264 267 269 270 270 264 257 251 246 243 239 240 246 250 253 256 258 261 261 259 258 256 256 254 254 263 269 271 274 274 279 287 293 290 281 277 277 333 59 77 98 114 125 131 128 125 127 124 115 101 90 84 78 72 65 60 59 55 52 50 48 47 45 44 38 29 21 7 355 350 350 350 351 352 356 360 1 4 6 9 11 11 12 15 18 20 20 19
324 317 303 280 264 259 258 258 262 264 265 266 269 266 257 251 246 241 240 238 240 246 249 251 254 255 256 255 253 252 251 249 246 249 257 262 267 273 277 281 284 278 267 257 251 157 108 105 109 114 116 118 121 122 125 128 123 113 101 92 83 75 68 59 52 49 46 44 41 38 35 31 27 21 15 4 351 344 343 343 344 346 348 351 355 357 0 3 4 7 8 10 15 16 17 19 19
326 322 319 307 287 273 264 259 259 259 260 263 268 262 249 244 240 235 236 236 237 242 246 248 250 250 250 250 250 250 250 249 248 250 254 256 263 270 275 277 272 258 247 230 166 125 119 119 118 118 115 115 119 123 125 123 116 106 95 84 75 67 59 50 42 36 34 33 34 33 26 19 15 11 4 353 344 340 340 341 342 345 346 347 351 353 357 1 2 4 6 9 14 16 16 19 19
322 321 321 316 308 296 278 267 262 258 258 261 263 254 240 236 234 230 231 232 233 237 242 242 242 244 246 248 251 252 251 251 252 254 254 257 262 268 271 267 258 246 226 170 135 128 127 123 120 118 115 117 120 122 121 115 107 96 85 77 68 59 48 41 35 30 28 29 32 33 31 27 24 19 13 5 358 355 354 353 353 352 351 350 350 353 357 1 4 4 4 8 14 16 16 18 20
317 318 322 321 315 310 298 283 272 262 258 257 252 241 232 230 230 225 224 226 227 230 234 236 237 239 244 250 254 255 253 255 258 257 255 255 258 261 258 251 241 222 176 142 133 132 129 124 120 118 117 118 119 117 113 107 99 89 80 72 63 53 44 39 37 34 32 31 31 30 30 31 30 27 22 16 12 11 9 8 8 6 6 2 357 357 359 1 4 4 4 8 13 14 15 18 21
313 316 320 325 323 318 317 308 289 268 256 248 240 232 228 227 227 223 219 221 220 220 225 231 235 237 243 251 257 259 259 261 262 257 250 242 237 239 236 225 205 172 146 136 135 134 130 126 123 120 119 117 115 112 109 104 97 86 75 66 58 50 45 43 41 38 35 31 29 27 26 25 26 26 22 17 15 13 12 12 13 13 13 11 7 5 4 2 3 3 4 8 11 12 14 18 21
304 312 320 325 327 327 328 325 306 275 254 243 235 230 229 228 227 224 220 220 220 219 220 226 232 236 242 251 258 262 264 264 258 247 234 216 209 211 206 186 161 147 141 138 138 136 133 129 124 121 119 116 114 112 110 106 96 79 67 60 54 48 45 44 41 38 34 30 26 25 25 23 21 20 16 14 14 11 11 11 10 10 10 10 8 7 5 1 1 4 5 8 10 10 11 15 19
296 306 317 323 328 331 333 333 317 285 258 242 233 231 232 233 231 226 222 223 225 223 221 223 228 235 242 250 258 263 262 254 237 221 205 184 183 181 171 155 146 143 141 140 141 139 135 130 126 123 120 117 114 113 110 104 89 71 63 59 51 45 41 39 37 34 30 26 23 21 21 19 16 15 11 10 11 12 13 12 10 9 8 6 5 4 2 358 359 4 7 9 10 10 10 13 16
290 298 310 318 323 329 334 336 327 295 265 242 234 233 233 233 230 224 221 224 228 228 225 224 227 232 241 251 257 258 252 231 192 185 178 165 165 160 152 147 146 146 143 143 143 140 136 131 127 124 121 119 116 112 105 94 83 73 64 56 48 43 38 35 32 29 25 23 21 18 15 12 11 11 10 9 11 12 15 14 10 9 6 4 2 0 358 357 359 3 5 8 10 10 10 12 14
285 290 298 307 312 320 331 339 339 315 279 249 236 233 229 225 221 218 217 222 228 229 227 224 226 233 241 250 252 244 228 200 171 167 164 158 156 151 148 149 148 147 146 146 144 140 134 129 127 125 122 120 116 109 98 91 84 73 61 53 47 40 34 30 27 24 21 19 17 14 11 8 7 7 8 9 10 11 13 11 8 5 3 1 360 359 359 360 1 3 4 5 6 8 8 10 12
280 283 285 292 297 304 315 331 345 338 308 268 246 235 225 219 217 216 215 218 222 225 226 225 227 234 239 242 237 224 204 185 168 160 159 156 153 150 150 151 149 149 149 148 145 141 134 128 126 124 121 117 112 107 99 91 79 65 56 49 42 34 26 21 19 18 16 13 11 9 8 7 6 6 6 6 6 6 8 8 5 2 0 359 359 359 0 3 5 5 4 2 0 1 3 5 8
272 275 276 279 283 287 292 300 328 347 335 297 261 244 229 222 222 223 219 216 219 220 224 227 229 232 230 225 219 207 188 179 167 157 157 156 153 153 153 152 151 152 153 152 150 145 138 130 127 123 118 115 111 107 97 83 68 56 49 42 35 26 19 12 11 9 7 6 5 5 7 6 6 6 5 3 1 1 3 3 1 359 357 357 356 356 357 360 2 3 3 1 355 353 356 358 1
264 268 269 270 272 274 277 279 286 317 338 326 287 253 237 232 230 231 228 221 218 219 223 228 227 222 213 207 203 190 176 170 162 158 158 157 157 157 156 155 156 157 159 159 157 154 146 135 132 125 119 117 114 105 92 75 58 46 39 33 27 19 12 7 4 1 360 1 2 4 5 4 5 6 4 1 359 358 359 359 357 356 354 353 352 351 352 352 352 354 356 357 354 349 348 349 352
258 261 264 264 264 265 267 269 272 280 309 325 316 273 236 231 225 224 222 217 214 216 220 220 212 201 192 190 185 173 165 162 160 160 161 161 161 162 161 160 160 161 163 164 164 162 156 148 142 131 126 125 122 112 92 66 45 34 28 24 19 14 9 4 360 356 354 357 360 2 3 3 3 3 2 360 358 357 356 355 353 352 351 350 349 348 346 345 343 344 345 348 351 348 343 342 344
254 257 260 261 260 261 262 262 263 264 272 296 310 295 248 221 204 199 200 200 202 205 205 197 188 180 176 177 172 165 162 161 163 165 165 165 166 166 165 164 164 163 163 164 166 167 166 165 161 150 143 140 138 128 87 50 30 21 17 14 11 7 4 0 357 354 352 354 358 0 1 1 1 1 0 358 356 355 353 352 351 350 349 348 347 347 346 344 340 339 340 342 345 346 341 338 339
254 255 257 260 258 256 257 257 257 258 258 262 278 282 262 235 198 176 176 179 181 185 185 180 177 175 174 175 173 170 168 168 170 170 168 167 167 169 169 169 167 165 165 166 168 172 176 182 185 176 166 163 161 150 68 21 11 9 6 3 2 1 358 356 354 352 351 353 356 359 360 360 0 0 358 355 353 352 350 350 351 350 349 346 344 343 342 341 339 338 338 339 341 343 340 337 336
253 252 253 256 256 254 254 253 252 253 254 253 253 258 260 249 218 185 169 166 173 179 180 179 181 182 181 180 178 175 174 174 173 171 169 168 170 172 174 175 173 171 172 172 176 183 189 199 203 196 191 192 196 219 318 347 353 356 354 353 355 355 354 352 351 350 350 352 354 358 359 359 358 358 356 353 351 349 348 349 349 349 349 346 342 340 339 339 338 336 338 339 340 341 339 335 333
249 248 248 251 252 252 250 248 248 250 252 251 248 245 249 249 231 199 179 173 180 189 188 186 187 189 188 184 180 178 176 175 175 173 172 171 174 177 181 182 182 182 184 186 192 200 207 213 213 208 207 211 222 252 293 322 336 343 344 345 348 348 349 349 348 348 350 352 353 355 357 356 354 353 352 350 348 347 347 348 349 349 348 347 344 342 341 340 338 337 337 340 341 340 338 335 331
244 244 243 246 248 249 248 244 242 246 248 247 246 243 242 247 242 218 199 194 198 200 196 192 190 189 190 188 185 183 181 178 176 175 174 173 174 178 183 188 191 195 198 204 209 216 222 224 220 216 216 222 237 258 284 309 322 331 335 338 341 342 345 346 346 347 351 353 353 351 351 350 348 348 348 347 346 345 347 348 349 349 347 346 346 345 343 342 340 337 337 339 340 339 339 338 333
240 240 238 241 246 247 247 243 237 240 245 243 244 244 239 240 242 232 218 212 209 205 200 195 191 188 189 189 189 188 186 183 180 180 180 180 180 181 187 192 196 201 206 212 220 226 232 231 227 226 228 234 246 262 280 298 310 320 328 332 334 337 341 344 345 347 350 353 352 349 345 343 342 343 345 345 346 346 347 347 347 346 345 345 345 344 343 341 339 337 334 335 336 338 340 340 338
237 239 237 238 244 245 246 242 235 237 241 239 241 244 239 236 237 235 227 221 216 211 203 196 194 191 189 190 191 192 193 192 189 188 187 187 189 192 196 200 205 209 211 214 221 228 233 235 235 237 242 249 258 268 279 291 302 313 322 327 330 334 338 341 343 345 348 349 348 344 340 338 339 341 344 345 345 345 344 344 344 344 345 345 344 343 342 340 338 336 333 329 329 333 338 340 340
236 239 238 238 241 244 246 244 236 235 236 234 237 242 241 237 234 233 231 227 222 217 209 201 197 194 193 193 195 197 199 200 199 197 195 193 196 199 204 209 214 220 222 221 221 223 228 235 241 245 252 261 269 275 282 290 299 308 317 323 327 331 333 336 339 341 343 343 340 337 333 333 337 341 343 344 342 341 340 341 342 344 346 346 344 343 341 339 338 336 332 328 325 327 332 336 337
238 238 237 238 239 242 245 246 240 235 232 231 235 240 242 242 237 232 232 232 227 222 218 211 203 199 198 199 200 202 202 205 207 206 206 205 203 205 210 214 218 223 229 231 229 227 230 237 243 250 259 269 276 280 285 291 299 306 313 320 325 329 330 331 333 335 337 337 333 329 328 331 336 340 342 341 339 338 339 339 340 342 344 344 343 341 340 339 338 337 334 330 326 324 327 331 332
239 238 236 236 238 240 243 246 244 236 231 232 235 236 239 241 240 235 232 232 230 227 224 218 211 207 207 208 208 207 207 210 213 215 218 219 216 216 217 220 224 228 233 237 238 237 239 244 250 256 265 274 280 284 289 294 300 305 310 316 322 326 327 326 327 329 330 330 327 325 326 330 335 338 338 336 336 337 338 338 338 340 341 341 340 339 339 339 339 339 336 332 326 322 324 326 327
240 239 237 235 236 238 240 245 246 241 235 237 237 235 233 235 240 237 234 232 229 229 227 222 218 217 217 219 218 215 215 217 220 222 226 229 231 232 231 230 230 231 233 234 237 239 241 244 251 259 267 275 281 285 290 295 300 305 309 314 319 323 323 322 322 323 325 324 322 321 324 329 333 334 333 333 334 336 336 336 336 337 338 338 338 338 337 337 337 337 336 332 326 322 321 322 323
240 239 237 235 234 236 239 243 247 246 241 239 238 234 228 229 237 237 235 235 230 228 230 227 224 222 222 224 225 224 225 227 227 228 232 236 240 243 244 242 237 234 235 239 243 245 243 243 247 255 264 272 279 283 287 293 298 302 307 311 317 320 320 318 317 318 320 319 318 319 323 328 331 331 330 331 333 334 334 334 333 333 334 335 335 336 336 336 335 335 334 332 328 324 321 320 319
239 239 237 236 234 233 236 240 243 244 241 239 237 233 226 227 235 237 235 236 233 228 228 230 228 226 226 228 230 231 233 235 234 234 238 242 245 246 249 249 246 244 244 250 256 254 249 246 247 253 262 270 276 280 284 290 295 299 304 309 314 317 316 314 313 314 316 316 316 318 322 327 328 327 328 330 331 331 331 331 330 330 331 331 332 334 334 334 334 334 333 331 329 327 324 321 321
240 241 240 239 237 234 234 236 239 239 237 237 236 231 225 225 231 235 233 231 233 231 228 229 229 230 231 231 231 233 237 238 239 240 243 245 247 247 249 251 252 251 250 253 259 258 252 249 247 251 259 267 273 278 284 289 293 297 302 307 312 314 313 310 310 311 312 313 314 317 321 325 325 325 327 329 329 329 328 328 328 328 328 329 330 332 333 333 332 332 331 330 330 329 327 325 324
241 242 242 241 239 236 234 234 236 238 237 238 239 232 226 226 228 233 232 228 230 233 230 229 228 229 231 233 233 234 238 241 241 242 244 244 247 246 245 248 250 251 252 253 257 258 256 253 251 252 257 265 272 278 284 288 292 297 302 306 310 312 310 307 307 309 310 311 311 316 320 322 322 324 326 327 327 327 327 326 326 326 326 327 328 329 331 332 331 331 331 330 329 329 327 326 324
243 242 243 242 239 236 234 232 233 236 236 236 239 235 230 228 229 232 233 229 230 233 233 232 229 228 229 232 235 236 239 241 242 243 244 245 246 246 245 245 248 250 252 253 255 257 257 257 257 257 259 265 272 278 283 288 293 297 301 304 308 309 307 305 306 308 309 310 311 315 318 318 320 322 324 325 326 326 325 324 324 324 324 325 326 327 328 329 329 330 330 329 328 327 326 325 323
244 243 243 242 239 237 236 233 232 235 235 234 237 237 235 231 230 232 233 231 232 234 234 234 232 230 230 230 233 236 238 241 243 244 245 246 246 248 248 248 249 252 254 254 253 254 255 258 260 262 263 266 271 277 283 289 293 297 300 303 305 307 305 304 305 307 309 309 311 314 315 315 317 320 321 322 323 323 322 322 322 322 322 323 324 325 326 327 328 329 329 328 326 325 324 323 322
246 243 243 242 240 240 239 235 233 234 235 234 234 236 237 235 233 233 234 232 233 233 233 235 234 231 232 232 231 235 237 239 243 244 244 245 247 248 249 249 250 251 252 253 253 253 255 259 262 264 265 267 272 277 283 289 293 296 298 300 303 304 304 303 305 307 308 308 310 312 312 314 315 316 318 319 320 321 321 321 321 321 322 322 322 323 324 326 327 328 328 327 326 324 323 322 322
251 244 243 244 244 242 241 238 234 234 233 233 233 234 235 237 236 235 234 233 235 234 231 233 236 233 235 235 233 236 238 238 241 244 244 243 244 247 247 248 249 248 249 252 253 254 258 262 265 267 268 269 272 277 283 288 291 294 296 298 301 301 301 302 304 305 306 307 309 310 310 312 313 314 315 316 318 319 319 320 321 321 321 321 322 323 324 326 327 327 327 326 325 324 323 322 321
254 249 245 245 245 244 243 240 236 234 234 233 234 234 234 236 238 237 235 232 234 236 231 231 235 235 235 236 235 237 240 240 240 242 244 244 244 245 247 248 248 249 251 254 255 257 261 266 268 269 270 271 273 277 282 286 289 291 294 297 299 299 299 300 302 303 304 306 307 308 309 310 312 313 314 315 316 317 318 319 320 320 320 321 322 323 324 325 326 326 326 326 325 323 322 321 320
254 253 250 247 246 245 245 244 240 237 235 235 235 233 231 232 236 237 237 234 232 235 234 232 233 234 235 236 237 239 241 242 242 241 242 245 245 246 248 249 250 252 254 256 257 259 262 266 269 270 270 272 275 276 279 284 286 289 293 295 296 296 297 298 299 301 303 305 306 306 307 309 311 312 313 314 315 316 317 318 319 319 320 320 321 322 323 324 325 325 326 325 324 323 322 321 319